| time (UTC) | temp C | wind direction | speed KPH | gust KPH | rain 1hr cm | rain 24hr cm | rain mn cm | humidity % | barometer mb |
| 20260506112110 | 15 | 159 | 6.4 | 16.1 | 0.03 | 0.71 | 0.61 | 73 | 1005.2 |
| 20260506111110 | 16 | 165 | 1.6 | 9.7 | 0.03 | 0.71 | 0.61 | 74 | 1005.2 |
| 20260506110110 | 16 | 159 | 3.2 | 12.9 | 0.00 | 0.71 | 0.61 | 74 | 1005.5 |
| 20260506104110 | 16 | 155 | 1.6 | 16.1 | 0.00 | 0.71 | 0.61 | 78 | 1005.3 |
| 20260506103110 | 15 | 147 | 1.6 | 9.7 | 0.00 | 0.71 | 0.61 | 81 | 1005.1 |
| 20260506102110 | 15 | 153 | 3.2 | 19.3 | 0.00 | 0.71 | 0.61 | 80 | 1005.1 |
| 20260506101109 | 14 | 170 | 4.8 | 11.3 | 0.00 | 0.71 | 0.61 | 81 | 1004.9 |
| 20260506095113 | 15 | 153 | 3.2 | 17.7 | 0.00 | 0.71 | 0.61 | 80 | 1005.0 |
| 20260506093113 | 14 | 160 | 4.8 | 17.7 | 0.00 | 0.71 | 0.61 | 82 | 1004.9 |
| 20260506085113 | 13 | 155 | 6.4 | 19.3 | 0.00 | 0.71 | 0.61 | 85 | 1004.6 |
| 20260506083113 | 13 | 155 | 0.0 | 3.2 | 0.00 | 0.71 | 0.61 | 86 | 1004.4 |
| 20260506082113 | 13 | 142 | 0.0 | 8.0 | 0.00 | 0.71 | 0.61 | 88 | 1004.5 |
| 20260506081112 | 12 | 154 | 1.6 | 9.7 | 0.00 | 0.71 | 0.61 | 88 | 1004.3 |
| 20260506080112 | 12 | 153 | 0.0 | 8.0 | 0.00 | 0.71 | 0.61 | 89 | 1004.2 |
| 20260506073112 | 12 | 155 | 0.0 | 9.7 | 0.00 | 0.71 | 0.61 | 90 | 1004.3 |
| 20260506072112 | 12 | 152 | 1.6 | 11.3 | 0.00 | 0.71 | 0.61 | 92 | 1004.3 |
| 20260506062112 | 10 | 242 | 1.6 | 9.7 | 0.00 | 0.71 | 0.61 | 94 | 1004.1 |
| 20260506061111 | 10 | 278 | 0.0 | 0.0 | 0.00 | 0.71 | 0.61 | 94 | 1004.2 |
| 20260506060111 | 10 | 251 | 1.6 | 6.4 | 0.00 | 0.71 | 0.61 | 94 | 1004.2 |
| 20260506051111 | 10 | 329 | 0.0 | 0.0 | 0.00 | 0.71 | 0.61 | 94 | 1004.0 |
| 20260506050111 | 10 | 329 | 0.0 | 8.0 | 0.00 | 0.71 | 0.61 | 94 | 1003.8 |
| 20260506044111 | 10 | 329 | 0.0 | 0.0 | 0.00 | 0.71 | 0.61 | 94 | 1003.7 |
| 20260506035110 | 10 | 329 | 0.0 | 0.0 | 0.00 | 0.71 | 0.61 | 94 | 1003.8 |
| 20260506032110 | 10 | 329 | 0.0 | 3.2 | 0.00 | 0.71 | 0.61 | 94 | 1003.8 |
| 20260506025110 | 10 | 330 | 0.0 | 0.0 | 0.00 | 0.71 | 0.61 | 93 | 1004.0 |
| 20260506024110 | 10 | 330 | 0.0 | 0.0 | 0.00 | 0.71 | 0.61 | 93 | 1003.8 |
| 20260506021109 | 10 | 330 | 0.0 | 0.0 | 0.00 | 0.71 | 0.61 | 93 | 1003.8 |
| 20260506015110 | 10 | 330 | 0.0 | 0.0 | 0.05 | 0.71 | 0.61 | 93 | 1003.8 |
| 20260506012109 | 10 | 330 | 0.0 | 0.0 | 0.10 | 0.71 | 0.61 | 92 | 1003.5 |
| 20260506010109 | 10 | 330 | 0.0 | 1.6 | 0.38 | 0.69 | 0.58 | 92 | 1003.8 |
| 20260506005109 | 11 | 329 | 0.0 | 0.0 | 0.36 | 0.64 | 0.53 | 92 | 1004.3 |
| 20260506001114 | 11 | 329 | 0.0 | 0.0 | 0.33 | 0.43 | 0.33 | 91 | 1005.2 |
| 20260506000113 | 11 | 329 | 0.0 | 0.0 | 0.18 | 0.30 | 0.20 | 91 | 1005.4 |
| 20260505225113 | 13 | 273 | 8.0 | 19.3 | 0.00 | 0.10 | 0.00 | 90 | 1005.3 |
| 20260505224113 | 12 | 246 | 4.8 | 16.1 | 0.00 | 0.10 | 0.00 | 91 | 1005.2 |
| 20260505223113 | 12 | 277 | 4.8 | 16.1 | 0.00 | 0.10 | 0.00 | 91 | 1005.1 |
| 20260505221113 | 12 | 146 | 0.0 | 8.0 | 0.00 | 0.10 | 0.00 | 91 | 1004.9 |
| 20260505212112 | 12 | 80 | 0.0 | 0.0 | 0.00 | 0.10 | 0.10 | 90 | 1003.7 |
| 20260505211112 | 12 | 80 | 0.0 | 0.0 | 0.00 | 0.10 | 0.10 | 90 | 1003.8 |
| 20260505204112 | 12 | 80 | 0.0 | 0.0 | 0.03 | 0.10 | 0.10 | 89 | 1003.6 |
| 20260505203112 | 12 | 80 | 0.0 | 0.0 | 0.05 | 0.10 | 0.10 | 88 | 1003.7 |
| 20260505202112 | 13 | 80 | 0.0 | 0.0 | 0.05 | 0.10 | 0.10 | 88 | 1003.7 |
| 20260505201112 | 13 | 80 | 0.0 | 0.0 | 0.08 | 0.10 | 0.10 | 87 | 1003.7 |
| 20260505200112 | 13 | 80 | 0.0 | 0.0 | 0.08 | 0.08 | 0.08 | 86 | 1004.1 |
| 20260505194112 | 13 | 80 | 0.0 | 1.6 | 0.08 | 0.08 | 0.08 | 85 | 1004.6 |
| 20260505193112 | 14 | 91 | 3.2 | 11.3 | 0.05 | 0.05 | 0.05 | 84 | 1004.6 |
| 20260505192112 | 15 | 142 | 0.0 | 0.0 | 0.05 | 0.05 | 0.05 | 83 | 1004.8 |
| 20260505191111 | 15 | 142 | 1.6 | 11.3 | 0.03 | 0.03 | 0.03 | 82 | 1004.9 |
| 20260505183111 | 15 | 30 | 0.0 | 0.0 | 0.00 | 0.00 | 0.00 | 78 | 1003.8 |
| 20260505181111 | 16 | 31 | 0.0 | 6.4 | 0.00 | 0.00 | 0.00 | 78 | 1003.6 |
| 20260505174112 | 16 | 99 | 1.6 | 12.9 | 0.00 | 0.00 | 0.00 | 78 | 1003.9 |
| 20260505173111 | 16 | 57 | 3.2 | 16.1 | 0.00 | 0.00 | 0.00 | 77 | 1003.9 |
| 20260505164110 | 18 | 281 | 3.2 | 20.9 | 0.00 | 0.00 | 0.00 | 72 | 1004.3 |
| 20260505152110 | 18 | 360 | 8.0 | 22.5 | 0.00 | 0.00 | 0.00 | 67 | 1004.9 |
| 20260505151110 | 18 | 30 | 9.7 | 20.9 | 0.00 | 0.00 | 0.00 | 62 | 1004.8 |
| 20260505123109 | 22 | 49 | 3.2 | 12.9 | 0.00 | 0.00 | 0.00 | 49 | 1005.6 |
| 20260505122109 | 23 | 276 | 1.6 | 9.7 | 0.00 | 0.00 | 0.00 | 45 | 1005.9 |
| 20260505120114 | 23 | 261 | 1.6 | 9.7 | 0.00 | 0.00 | 0.00 | 47 | 1005.9 |
| 20260505115114 | 22 | 256 | 4.8 | 12.9 | 0.00 | 0.00 | 0.00 | 44 | 1005.7 |
| 20260505114114 | 23 | 309 | 0.0 | 1.6 | 0.00 | 0.00 | 0.00 | 44 | 1005.8 |
| 20260505113114 | 23 | 279 | 1.6 | 9.7 | 0.00 | 0.00 | 0.00 | 43 | 1005.8 |